Weather History for Lansing, MI

Change the Weather History Date:

Monday, July 30, 2012

  Actual Average Record
Temperature  
Mean Temperature 77 °F 71 °F  
Max Temperature 90 °F 82 °F 101 °F (1916)
Min Temperature 63 °F 61 °F 41 °F (1965)
Degree Days  
Heating Degree Days 0 0  
Month to date heating degree days 0 2  
Since 1 June heating degree days 43 57  
Since 1 July heating degree days 0 2  
Cooling Degree Days 12 7  
Month to date cooling degree days 393 210  
Year to date cooling degree days 680 383  
Since 1 June cooling degree days 584 342  
Growing Degree Days 26 (Base 50)    
Moisture  
Dew Point 57 °F    
Average Humidity 54    
Maximum Humidity 78    
Minimum Humidity 29    
Precipitation  
Precipitation 0.00 in 0.09 in 1.65 in (1959)
Month to date precipitation 1.31 2.74  
Year to date precipitation 14.42 17.76  
Snow  
Snow 0.00 in 0.00 in 0.00 in ()
Month to date snowfall 0.0 0.0  
Since 1 June snowfall 0.0 0.0  
Since 1 July snowfall 0.0 0.0  
Snow Depth 0.00 in    
Sea Level Pressure  
Sea Level Pressure 29.96 in    
Wind  
Wind Speed 5 mph (SSW)    
Max Wind Speed 14 mph    
Max Gust Speed 25 mph    
Visibility 10 miles    
Events      
T = Trace of Precipitation, MM = Missing Value Source: NWS Daily Summary

Daily Weather History Graph

Daily Weather History Graph

Search for Another Location

Airport:

Trip Planner

Search our weather history database for the weather conditions in past years. The results will help you decide how hot, cold, wet, or windy it might be!

Date:

Astronomy

Jul. 30, 2012 Rise Set
Actual Time 6:28 AM EDT 9:00 PM EDT
Civil Twilight 5:55 AM EDT 9:32 PM EDT
Nautical Twilight 5:15 AM EDT 10:12 PM EDT
Astronomical Twilight 4:30 AM EDT 10:58 PM EDT
Moon 7:02 PM EDT (7/30) 3:40 AM EDT (7/30)
Length of Visible Light 15h 36m
Length of Day
14h 32m
Waxing Gibbous, 92% of the Moon is Illuminated
Jul 30
Waxing Gibbous
Aug 1
Full
Aug 9
Last Quarter
Aug 17
New
Aug 24
First Quarter

Hourly Weather History & Observations

Time (EDT) Temp. Heat Index Dew Point Humidity Pressure Visibility Wind Dir Wind Speed Gust Speed Precip Events Conditions
12:53 AM 66.9 °F - 59.0 °F 76% 30.03 in 10.0 mi Calm Calm - N/A   Mostly Cloudy
1:53 AM 64.9 °F - 57.0 °F 75% 30.01 in 10.0 mi East 4.6 mph - N/A   Mostly Cloudy
2:53 AM 68.0 °F - 57.9 °F 70% 30.01 in 10.0 mi Calm Calm - N/A   Mostly Cloudy
3:53 AM 66.0 °F - 57.0 °F 73% 30.01 in 10.0 mi Calm Calm - N/A   Scattered Clouds
4:53 AM 64.9 °F - 57.0 °F 75% 30.01 in 10.0 mi Calm Calm - N/A   Scattered Clouds
5:53 AM 64.9 °F - 57.0 °F 75% 30.00 in 10.0 mi Calm Calm - N/A   Scattered Clouds
6:53 AM 64.9 °F - 57.0 °F 75% 30.00 in 10.0 mi SSE 3.5 mph - N/A   Scattered Clouds
7:53 AM 69.1 °F - 57.9 °F 68% 30.01 in 10.0 mi Calm Calm - N/A   Partly Cloudy
8:53 AM 73.9 °F - 59.0 °F 59% 30.02 in 10.0 mi Calm Calm - N/A   Partly Cloudy
9:53 AM 78.1 °F - 60.1 °F 54% 30.01 in 10.0 mi Calm Calm - N/A   Partly Cloudy
10:53 AM 82.0 °F 82.0 °F 57.9 °F 44% 30.00 in 10.0 mi South 5.8 mph - N/A   Partly Cloudy
11:53 AM 84.0 °F 82.9 °F 55.0 °F 37% 29.99 in 10.0 mi South 5.8 mph - N/A   Scattered Clouds
12:53 PM 84.9 °F 83.3 °F 54.0 °F 34% 29.97 in 10.0 mi SSW 6.9 mph - N/A   Scattered Clouds
1:53 PM 86.0 °F 84.0 °F 53.1 °F 32% 29.96 in 10.0 mi Variable 4.6 mph - N/A   Partly Cloudy
2:53 PM 89.1 °F 86.7 °F 53.1 °F 29% 29.94 in 10.0 mi Variable 5.8 mph - N/A   Partly Cloudy
3:53 PM 88.0 °F 85.7 °F 53.1 °F 30% 29.93 in 10.0 mi West 6.9 mph - N/A   Partly Cloudy
4:53 PM 88.0 °F 86.5 °F 55.9 °F 34% 29.91 in 10.0 mi West 9.2 mph - N/A   Scattered Clouds
5:53 PM 87.1 °F 85.7 °F 55.9 °F 35% 29.91 in 10.0 mi WSW 8.1 mph - N/A   Scattered Clouds
6:53 PM 88.0 °F 86.7 °F 57.0 °F 35% 29.89 in 10.0 mi SSW 6.9 mph - N/A   Scattered Clouds
7:53 PM 86.0 °F 85.0 °F 57.9 °F 38% 29.89 in 10.0 mi SW 8.1 mph - N/A   Partly Cloudy
8:53 PM 82.0 °F 82.4 °F 60.1 °F 47% 29.89 in 10.0 mi SSW 6.9 mph - N/A   Partly Cloudy
9:53 PM 80.1 °F 81.1 °F 61.0 °F 52% 29.90 in 10.0 mi SSW 5.8 mph - N/A   Partly Cloudy
10:53 PM 77.0 °F - 61.0 °F 58% 29.89 in 10.0 mi SSW 6.9 mph - N/A   Partly Cloudy
11:53 PM 77.0 °F - 62.1 °F 60% 29.87 in 10.0 mi SSW 9.2 mph - N/A   Partly Cloudy